CAPE
810 1279 1983 2388 2371 2122 1870 1747 1697 1846 2244 2330 2392 2354 2401 2371 2316 2367 2350 2218 2250 1920 1294 1250 1131 994 947 827 756 922 777 690 710 541 535 362 315 256 179 752 568 22 397
898 1164 1830 2165 2163 1961 1835 1773 1734 1979 2332 2492 2424 2297 2307 2353 2303 2257 2179 2006 1919 1587 1366 1030 1006 1036 773 731 705 623 588 665 491 407 434 641 440 122 102 546 557 348 494
865 1071 1672 1903 2066 2007 1976 1951 1964 2241 2488 2601 2396 2255 2292 2300 2251 2219 2135 1911 1826 1388 1033 939 991 901 699 584 446 259 159 238 320 341 471 220 23 91 13 230 327 457 391
919 913 1336 1721 1969 2011 1951 2015 2115 2387 2497 2485 2423 2269 2280 2232 2193 2157 2122 1892 1829 1285 980 946 994 950 845 690 108 3 15 127 220 300 106 340 105 181 82 96 62 118 108
724 821 1289 1564 1813 1998 2006 2081 2211 2328 2278 2248 2231 2232 2208 2154 2136 2017 1988 1827 1844 1225 953 705 703 685 468 119 7 0 2 39 69 98 41 11 111 162 174 155 50 100 198
647 1049 899 1327 1609 1904 2066 2132 2152 2050 1924 1908 2031 2140 2100 2068 2023 1981 1991 1856 1749 1410 1224 627 281 143 85 31 14 28 57 110 102 62 123 86 130 310 129 109 141 76 20
735 934 925 1090 1395 1740 1972 1977 1797 1684 1626 1734 1955 2009 2045 2047 1906 1849 1788 1601 1586 1545 1151 758 419 193 119 76 56 59 90 94 20 60 50 231 218 526 227 147 76 37 0
1629 978 688 894 1185 1442 1588 1424 1249 1283 1367 1521 1721 1912 2016 1802 1640 1573 1444 1403 1442 1323 1274 844 576 386 266 197 174 136 128 93 2 140 73 367 542 721 314 193 148 106 58
2096 1280 816 750 961 1101 1068 912 877 989 1108 1288 1488 1616 1471 1201 1169 1240 1143 1127 1130 1179 1134 905 676 494 405 342 279 187 68 82 19 74 116 211 663 563 179 168 232 194 201
2263 1461 1114 1016 958 1124 1130 743 700 792 909 1094 1202 1146 890 805 874 946 897 948 927 895 888 798 613 468 422 376 298 191 96 73 243 293 293 255 700 464 277 310 450 508 446
2133 1983 1560 1403 1204 1216 1037 837 610 798 795 842 926 782 516 372 453 510 150 626 875 799 755 640 552 407 332 305 377 304 187 350 435 300 236 404 572 232 134 245 621 868 775
2045 2233 2049 1978 1656 1589 1056 777 846 807 813 769 671 662 578 706 875 890 555 536 788 727 635 546 473 338 225 627 692 570 684 766 545 419 357 262 457 198 153 247 471 604 930
1797 1949 2104 2319 2161 2056 1707 1082 1126 1146 1107 1021 1196 1127 1097 1509 1781 835 526 437 358 476 261 390 394 493 781 894 927 1044 849 971 975 1056 1052 903 773 728 574 389 510 514 670
1723 1868 1973 2375 2461 2417 2113 1851 1630 1643 1759 1716 1721 1834 2145 1748 1912 1609 984 914 917 755 601 681 831 779 1063 1303 1359 1401 1436 1300 1404 1179 1192 1078 892 1060 1145 689 618 562 845
1517 1766 1713 1919 2449 2321 2937 2305 1992 1925 1834 1924 2306 1545 1452 1591 1539 1779 1618 1101 849 905 983 1103 1164 998 1207 1242 1329 1369 1326 1188 1264 1140 982 986 850 842 1176 1228 1143 1036 902
1621 1750 1639 1759 2482 2555 2289 2100 2123 1981 1689 1636 1921 1442 1803 1930 1624 1583 1439 1266 1130 1128 1344 1385 1501 1342 1177 1282 1179 1102 1056 738 697 612 569 419 440 571 727 1308 1418 1411 1205
1792 2003 1729 1646 1467 1722 1992 1974 1840 1924 1827 1633 1716 2071 1685 1996 1359 1261 1312 1132 1304 1393 1518 1400 1012 1225 1033 951 572 632 648 57 49 40 2 0 0 1 140 333 568 678 556
1694 1947 1718 1611 1201 1103 1489 1899 1399 1471 1568 1610 1796 2214 1859 1582 1362 1663 1319 1138 1181 1220 1083 702 5 0 0 0 0 0 0 0 0 0 0 0 0 0 0 6 40 121 245
1452 1955 1864 1590 1376 1317 1485 1515 1544 1685 1623 1898 2006 1910 1815 1616 1578 1373 1127 911 680 82 0 0 0 0 0 0 0 0 0 0 0 0 0 0 0 0 0 7 46 79 115
1416 2035 2030 1680 1735 1624 1532 1625 1611 1533 2165 1830 1692 1570 1492 1391 1372 960 145 8 0 0 0 0 0 0 0 0 0 0 0 0 0 0 0 0 0 0 0 0 0 0 1
1124 2013 2257 1850 1869 1703 1715 1409 1616 1922 1522 1425 1183 713 587 400 262 58 6 0 0 0 0 0 0 0 0 0 0 0 0 0 0 0 0 0 0 0 0 0 0 0 0
1458 2110 2361 2066 2088 1820 1522 1564 1774 1397 957 1002 651 272 155 72 15 0 0 0 0 0 0 0 0 0 0 0 0 0 0 0 0 0 0 0 0 0 0 0 0 0 0
1108 1975 2274 2108 2133 1681 1721 1576 1403 1046 769 574 294 88 35 24 0 0 0 0 0 0 0 0 0 0 0 0 0 0 0 0 0 0 0 0 0 0 0 0 0 0 0
1184 1892 2157 1998 2030 1649 1526 1387 1105 934 547 259 180 142 39 9 0 0 0 0 0 0 0 0 0 0 0 0 0 0 0 0 0 0 0 0 0 0 0 0 0 0 0
1401 1568 1873 1840 1756 1462 1253 1325 1028 645 301 156 123 127 34 3 0 0 0 0 0 0 0 0 0 0 0 0 0 0 0 0 0 0 0 0 0 0 0 0 0 0 0
1261 1420 2239 1833 1587 1536 1096 1224 1117 640 323 145 140 94 17 8 0 0 0 0 0 0 0 0 0 0 0 0 0 0 0 0 0 0 0 0 0 0 0 0 0 0 0
CIN
-296 -373 -252 -152 -128 -145 -166 -165 -153 -100 -41 -29 -16 -12 -4 -3 -7 -1 -1 -2 -1 0 -28 -22 -28 -34 -36 -51 -58 -29 -58 -76 -65 -102 -96 -142 -149 -158 -180 -73 -96 -377 -138
-311 -381 -292 -204 -171 -177 -181 -164 -150 -88 -34 -13 -9 -10 -8 -7 -7 -2 -1 -1 0 -17 -28 -58 -45 -32 -66 -72 -70 -86 -103 -93 -118 -124 -110 -77 -126 -226 -242 -101 -113 -172 -126
-306 -412 -305 -251 -194 -173 -154 -139 -106 -56 -18 -5 -3 -10 -7 -3 -3 -2 0 -6 -7 -35 -56 -60 -48 -51 -76 -103 -140 -200 -263 -228 -178 -155 -115 -175 -371 -275 -357 -200 -170 -143 -160
-322 -371 -359 -284 -204 -172 -151 -123 -80 -33 -15 -10 -4 -10 -4 -2 -1 0 0 -2 -4 -41 -80 -67 -52 -54 -69 -101 -309 -247 -451 -333 -271 -229 -190 -168 -195 -229 -304 -288 -329 -287 -285
-328 -343 -359 -297 -218 -153 -128 -102 -60 -34 -41 -33 -16 -10 -7 -3 -1 -3 0 -7 -1 -53 -92 -127 -120 -129 -192 -343 -520 0 -406 -483 -447 -219 -287 -273 -227 -261 -257 -269 -366 -322 -256
-283 -311 -444 -313 -247 -163 -102 -79 -62 -64 -75 -65 -26 -7 -3 0 -2 -1 0 -1 -2 -31 -53 -151 -238 -314 -375 -474 -520 -499 -457 -404 -456 -300 -202 -253 -233 -226 -333 -360 -329 -395 -493
-248 -370 -386 -324 -248 -185 -117 -95 -113 -119 -111 -73 -24 -2 0 0 -4 -1 -5 -25 -24 -28 -67 -130 -208 -300 -364 -418 -458 -458 -426 -459 -568 -327 -289 -209 -234 -191 -290 -353 -437 -501 -50
-211 -286 -411 -355 -254 -196 -160 -162 -178 -160 -115 -60 -21 -6 0 -2 -16 -23 -37 -49 -47 -51 -44 -108 -163 -211 -255 -307 -327 -366 -377 -438 -305 -241 -295 -138 -229 -153 -255 -339 -387 -427 -491
-179 -180 -356 -355 -290 -243 -227 -238 -212 -173 -125 -80 -27 -6 -35 -86 -90 -75 -93 -97 -98 -78 -72 -104 -143 -179 -205 -231 -277 -359 -498 -491 -621 -309 -278 -214 -189 -187 -354 -368 -315 -348 -335
-139 -221 -277 -283 -287 -207 -190 -259 -236 -184 -143 -87 -54 -65 -126 -149 -131 -113 -123 -109 -110 -114 -108 -120 -148 -187 -201 -230 -282 -379 -508 -575 -201 -178 -174 -342 -176 -216 -306 -282 -200 -172 -187
-107 -135 -187 -199 -217 -200 -199 -211 -243 -183 -167 -137 -100 -130 -214 -246 -214 -219 -397 -177 -103 -114 -127 -146 -156 -201 -252 -274 -140 -161 -291 -137 -113 -173 -203 -311 -199 -343 -433 -348 -163 -93 -106
-104 -101 -103 -106 -147 -114 -156 -236 -176 -172 -162 -158 -161 -165 -173 -90 -60 -77 -97 -186 -115 -109 -123 -159 -198 -277 -322 -80 -80 -85 -59 -51 -69 -93 -129 -219 -226 -338 -386 -336 -211 -126 -34
-129 -98 -103 -75 -73 -59 -62 -179 -140 -107 -95 -95 -59 -75 -80 -24 -1 -61 -70 -106 -140 -190 -304 -144 -136 -79 -20 -21 -47 -7 -44 -19 -19 -20 -13 -5 -24 -21 -45 -133 -145 -137 -72
-123 -110 -92 -68 -59 -44 -25 -90 -70 -46 -18 -16 -14 -29 -37 -16 -18 -28 -25 -25 -22 -33 -46 -49 -36 -19 -7 -15 -23 -10 -6 -1 -1 -13 -7 -15 -30 -23 -12 -78 -92 -89 -41
-135 -122 -147 -86 -59 -51 -13 -38 -45 -31 -36 -22 -20 -59 -37 -19 -37 -33 -18 -48 -15 -28 -18 -22 -28 -26 -23 -15 -6 -10 -5 -11 -12 -16 -24 -33 -37 -31 -62 -47 -37 -31 -28
-92 -138 -164 -110 -57 -32 -40 -47 -23 -28 -61 -32 -29 -30 -45 -40 -32 -28 -33 -22 -13 -19 -27 -12 -4 -14 -20 -16 -14 -18 -22 -43 -37 -46 -64 -74 -63 -45 -70 -65 -42 -29 -16
-47 -95 -146 -144 -152 -101 -54 -34 -29 -20 -34 -35 -39 -59 -43 -32 -29 -15 -25 -25 -22 -12 -14 -8 -13 -17 -14 -15 -39 -41 -33 -74 -3 -4 -8 0 0 -5 -271 -118 -100 -63 -65
-47 -145 -139 -119 -202 -203 -109 -48 -84 -33 -18 -20 -39 -45 -24 -34 -24 -10 -31 -28 -14 -8 -21 -35 -20 0 0 0 0 0 0 0 0 0 0 0 0 0 0 -76 -114 -277 -133
-67 -121 -172 -147 -150 -160 -102 -87 -44 -22 -17 -46 -46 -28 -22 -19 -8 -14 -25 -16 -42 -193 0 0 0 0 0 0 0 0 0 0 0 0 0 0 0 0 0 -96 -56 -50 -39
-90 -101 -154 -164 -103 -92 -79 -63 -33 -47 -33 -26 -17 -10 -10 -5 -11 -10 -96 -169 0 0 0 0 0 0 0 0 0 0 0 0 0 0 0 0 0 0 0 0 0 0 0
-102 -60 -111 -92 -110 -63 -63 -91 -48 -16 -26 -17 -26 -69 -46 -31 -31 -86 -139 0 0 0 0 0 0 0 0 0 0 0 0 0 0 0 0 0 0 0 0 0 0 0 0
-70 -64 -67 -66 -59 -69 -87 -70 -33 -37 -56 -33 -55 -100 -99 -92 -102 0 0 0 0 0 0 0 0 0 0 0 0 0 0 0 0 0 0 0 0 0 0 0 0 0 0
-79 -56 -42 -42 -43 -85 -43 -56 -37 -36 -43 -69 -83 -103 -128 -106 0 0 0 0 0 0 0 0 0 0 0 0 0 0 0 0 0 0 0 0 0 0 0 0 0 0 0
-84 -64 -30 -28 -53 -87 -47 -48 -65 -91 -108 -118 -88 -71 -108 -63 0 0 0 0 0 0 0 0 0 0 0 0 0 0 0 0 0 0 0 0 0 0 0 0 0 0 0
-122 -104 -66 -18 -44 -33 -70 -40 -66 -99 -100 -97 -88 -86 -103 -62 0 0 0 0 0 0 0 0 0 0 0 0 0 0 0 0 0 0 0 0 0 0 0 0 0 0 0
-183 -151 -51 -66 -21 -24 -35 -36 -55 -99 -92 -93 -83 -80 -116 -117 0 0 0 0 0 0 0 0 0 0 0 0 0 0 0 0 0 0 0 0 0 0 0 0 -1 0 -1
Wind_Speed
16 19 22 22 22 23 21 18 18 17 14 9 8 8 7 8 11 11 11 11 10 9 9 8 8 7 6 5 4 3 2 1 2 4 7 11 9 7 7 9 6 nan 9
20 20 21 22 23 22 22 18 15 15 13 10 9 9 8 9 10 11 11 9 8 9 9 9 9 8 7 6 4 1 4 4 4 6 9 12 9 7 7 8 9 8 10
20 21 21 21 23 24 22 18 15 14 12 10 8 9 10 10 9 9 8 7 8 7 5 5 7 7 6 6 4 3 5 9 8 8 13 9 nan nan nan 6 7 8 9
23 19 20 20 23 23 22 19 16 15 13 11 9 9 8 7 7 7 4 5 8 7 7 8 8 8 8 5 2 nan nan 9 10 11 13 20 11 11 nan nan nan 9 10
22 20 21 20 21 22 21 19 16 16 14 11 9 10 8 7 7 7 6 5 6 8 8 8 8 8 8 6 nan nan nan nan nan nan nan nan 12 12 10 8 nan 10 9
24 24 21 20 21 22 20 18 18 14 13 11 9 8 8 6 4 3 4 6 7 8 9 9 8 7 nan nan nan nan nan 9 10 nan 10 nan 12 17 15 12 11 nan nan
26 26 19 17 19 22 21 19 18 15 11 9 9 7 5 4 1 2 1 1 2 4 8 10 11 10 9 nan nan nan nan nan nan nan nan 16 16 19 16 13 nan nan nan
30 27 22 19 19 20 20 18 16 16 13 10 9 7 6 5 3 1 1 3 5 6 10 10 10 10 10 10 8 7 6 nan nan 8 nan 16 21 21 20 17 13 11 nan
32 28 25 21 21 21 21 18 16 16 15 12 12 10 9 6 5 4 5 6 8 10 11 11 11 10 10 10 11 11 nan nan nan nan 7 19 23 22 21 17 15 13 12
29 28 27 24 22 19 19 20 18 16 16 14 13 13 9 8 7 7 7 8 11 11 12 12 11 11 11 11 12 12 nan nan 12 12 12 22 27 25 22 18 15 17 17
26 27 28 27 22 21 22 21 21 19 18 17 15 12 12 9 8 11 7 16 14 12 12 13 14 11 10 9 11 11 10 14 14 17 23 31 31 30 28 25 22 21 23
30 30 28 27 24 21 19 25 21 20 16 15 16 16 12 9 13 14 18 19 18 16 15 14 13 12 11 12 19 17 18 17 18 19 27 36 35 33 30 26 23 22 22
31 29 29 27 25 20 15 23 21 21 18 14 16 20 15 16 20 21 21 20 21 20 20 18 15 17 16 16 21 22 23 22 23 22 32 35 37 34 32 30 27 24 24
33 32 30 30 26 23 17 23 22 24 21 18 16 22 20 23 22 22 23 24 25 28 22 22 19 20 21 25 22 20 20 23 24 28 32 35 34 34 32 31 29 28 28
33 34 33 29 29 25 20 21 23 23 24 21 17 23 24 23 20 22 27 26 28 29 26 26 26 22 22 22 21 23 24 25 25 29 32 33 36 35 35 36 34 32 32
36 34 35 30 30 25 25 25 20 20 24 20 17 22 26 25 26 25 24 27 27 26 28 23 25 26 24 24 26 26 27 30 32 33 35 37 38 38 39 36 35 34 34
40 38 32 34 31 25 21 24 24 24 24 23 18 27 29 31 24 24 26 29 28 29 30 26 28 28 27 27 29 32 33 nan nan nan nan nan nan nan 44 40 38 40 42
49 43 38 31 32 32 25 27 27 24 23 26 28 28 31 30 27 32 31 30 28 29 28 31 nan nan nan nan nan nan nan nan nan nan nan nan nan nan nan nan nan 48 46
53 42 42 37 34 33 29 31 26 26 26 30 32 31 31 32 32 33 32 32 28 nan nan nan nan nan nan nan nan nan nan nan nan nan nan nan nan nan nan nan nan nan 54
52 56 39 41 38 35 31 33 31 32 32 32 31 33 35 35 35 33 36 nan nan nan nan nan nan nan nan nan nan nan nan nan nan nan nan nan nan nan nan nan nan nan nan
51 56 44 40 42 35 31 34 34 35 34 34 33 38 34 36 35 nan nan nan nan nan nan nan nan nan nan nan nan nan nan nan nan nan nan nan nan nan nan nan nan nan nan
47 55 52 39 42 36 34 35 36 36 34 35 36 33 37 nan nan nan nan nan nan nan nan nan nan nan nan nan nan nan nan nan nan nan nan nan nan nan nan nan nan nan nan
38 49 50 42 41 40 38 39 37 36 35 35 38 nan nan nan nan nan nan nan nan nan nan nan nan nan nan nan nan nan nan nan nan nan nan nan nan nan nan nan nan nan nan
41 43 47 49 43 42 45 38 38 38 37 38 38 38 nan nan nan nan nan nan nan nan nan nan nan nan nan nan nan nan nan nan nan nan nan nan nan nan nan nan nan nan nan
52 44 40 48 45 43 46 39 39 39 40 40 40 45 nan nan nan nan nan nan nan nan nan nan nan nan nan nan nan nan nan nan nan nan nan nan nan nan nan nan nan nan nan
54 46 45 49 45 44 45 43 42 42 42 41 43 nan nan nan nan nan nan nan nan nan nan nan nan nan nan nan nan nan nan nan nan nan nan nan nan nan nan nan nan nan nan
Wind_Direction
328 323 316 319 325 330 328 325 325 304 297 288 288 279 261 245 250 257 256 255 263 278 278 276 274 277 271 261 255 284 346 0 0 327 321 314 302 273 246 219 304 nan 273
328 317 314 318 324 328 329 327 325 323 318 293 276 272 266 260 260 261 272 280 295 294 289 281 285 292 294 293 289 313 89 69 39 14 347 329 315 296 271 263 254 295 291
317 311 312 315 322 327 328 324 317 318 318 308 298 280 267 269 283 291 291 313 322 317 308 305 301 303 305 304 316 8 65 84 66 53 40 56 nan nan nan 289 287 284 297
307 313 310 311 321 325 328 321 310 306 312 317 321 314 316 319 313 312 330 345 353 352 356 6 354 345 343 343 8 nan nan 92 95 83 48 19 320 319 nan nan nan 312 325
309 305 302 307 316 321 325 324 308 302 308 314 307 308 316 320 327 337 350 6 20 3 11 12 14 12 9 15 nan nan nan nan nan nan nan nan 335 323 319 320 nan 306 296
319 300 306 302 307 316 319 320 316 307 306 307 308 316 321 327 333 10 40 23 22 10 6 17 18 23 nan nan nan nan nan 102 100 nan 31 nan 319 329 323 323 310 nan nan
318 303 305 294 301 314 318 318 318 313 305 300 295 297 297 293 235 189 190 230 344 337 350 360 3 5 13 nan nan nan nan nan nan nan nan 329 333 333 327 328 nan nan nan
303 313 311 302 298 306 310 310 312 311 303 292 285 280 260 242 227 297 310 314 303 318 330 333 345 353 359 1 3 18 43 nan nan 68 nan 316 329 328 327 336 338 335 nan
304 318 318 316 304 297 299 298 299 300 295 289 283 272 270 266 250 271 282 292 302 309 317 325 328 333 341 347 351 359 nan nan nan nan 7 315 323 321 320 328 332 332 333
301 314 324 321 310 300 293 294 295 294 291 280 269 278 279 277 275 274 287 298 301 302 308 313 317 326 337 349 353 359 nan nan 346 353 319 308 314 311 311 316 320 325 326
302 312 322 324 316 307 299 293 290 294 297 286 276 274 268 257 274 286 298 299 300 300 306 306 310 320 330 332 334 347 336 322 332 318 304 311 314 314 315 318 319 319 323
309 312 317 323 318 311 298 289 294 295 292 295 284 271 256 259 261 288 273 294 300 297 304 307 307 308 299 304 309 326 314 320 303 309 305 314 312 311 310 311 312 314 314
311 310 317 319 318 312 306 284 286 286 290 295 306 286 279 259 266 264 274 280 282 296 287 295 287 279 290 287 290 306 313 297 300 304 305 315 314 310 308 309 312 313 312
309 312 312 315 315 311 296 286 287 286 291 292 300 301 278 270 269 269 273 287 292 294 299 297 292 292 289 277 293 301 311 308 308 310 314 317 315 312 312 312 313 315 313
305 309 315 316 310 305 291 292 285 284 283 291 287 296 281 284 288 285 280 281 277 283 285 283 283 281 281 286 300 297 300 301 297 301 301 309 317 318 319 316 314 312 308
299 305 308 311 302 302 287 290 283 286 290 289 287 292 292 284 280 279 277 270 271 271 279 280 283 285 292 300 303 307 307 312 314 316 313 311 321 323 319 317 313 309 300
295 293 298 302 303 303 297 292 288 282 288 288 285 283 286 283 287 284 278 280 277 281 285 291 292 301 303 304 310 311 315 nan nan nan nan nan nan nan 318 315 294 296 294
297 296 294 293 301 306 305 289 287 285 279 285 278 276 279 282 287 280 280 283 289 289 294 291 nan nan nan nan nan nan nan nan nan nan nan nan nan nan nan nan nan 305 303
302 300 297 293 296 301 302 294 293 292 287 276 275 279 284 287 286 287 286 285 286 nan nan nan nan nan nan nan nan nan nan nan nan nan nan nan nan nan nan nan nan nan 302
310 307 299 292 294 296 292 290 287 281 278 281 283 284 288 289 292 293 285 nan nan nan nan nan nan nan nan nan nan nan nan nan nan nan nan nan nan nan nan nan nan nan nan
312 304 303 293 292 291 289 285 281 280 281 284 287 287 293 291 291 nan nan nan nan nan nan nan nan nan nan nan nan nan nan nan nan nan nan nan nan nan nan nan nan nan nan
313 305 305 295 292 291 283 282 279 279 279 281 280 287 287 nan nan nan nan nan nan nan nan nan nan nan nan nan nan nan nan nan nan nan nan nan nan nan nan nan nan nan nan
311 305 306 298 291 288 282 280 279 277 276 278 282 nan nan nan nan nan nan nan nan nan nan nan nan nan nan nan nan nan nan nan nan nan nan nan nan nan nan nan nan nan nan
313 301 308 300 295 286 283 283 287 284 283 280 279 280 nan nan nan nan nan nan nan nan nan nan nan nan nan nan nan nan nan nan nan nan nan nan nan nan nan nan nan nan nan
307 310 305 296 298 286 283 280 277 278 277 276 280 284 nan nan nan nan nan nan nan nan nan nan nan nan nan nan nan nan nan nan nan nan nan nan nan nan nan nan nan nan nan
299 302 301 297 297 290 287 281 281 283 280 279 281 nan nan nan nan nan nan nan nan nan nan nan nan nan nan nan nan nan nan nan nan nan nan nan nan nan nan nan nan nan nan